Year,Month,Day,Hour,Minute,Value (Times are PST for windspeed in km/hr)
2022,05,16,00,00,0.00
2022,05,16,00,01,0.00
2022,05,16,00,02,0.00
2022,05,16,00,03,0.00
2022,05,16,00,04,0.00
2022,05,16,00,05,0.00
2022,05,16,00,06,0.00
2022,05,16,00,07,0.00
2022,05,16,00,08,0.00
2022,05,16,00,09,0.00
2022,05,16,00,10,0.00
2022,05,16,00,11,0.00
2022,05,16,00,12,0.00
2022,05,16,00,13,0.00
2022,05,16,00,14,0.00
2022,05,16,00,15,0.00
2022,05,16,00,16,0.00
2022,05,16,00,17,0.00
2022,05,16,00,18,0.00
2022,05,16,00,19,0.00
2022,05,16,00,20,0.00
2022,05,16,00,21,0.00
2022,05,16,00,22,1.50
2022,05,16,00,23,1.80
2022,05,16,00,24,0.90
2022,05,16,00,25,0.70
2022,05,16,00,26,1.20
2022,05,16,00,27,0.80
2022,05,16,00,28,0.60
2022,05,16,00,29,1.50
2022,05,16,00,30,1.10
2022,05,16,00,31,0.50
2022,05,16,00,32,0.00
2022,05,16,00,33,1.10
2022,05,16,00,34,1.30
2022,05,16,00,35,0.00
2022,05,16,00,36,1.30
2022,05,16,00,37,1.00
2022,05,16,00,38,0.70
2022,05,16,00,39,0.20
2022,05,16,00,40,1.20
2022,05,16,00,41,0.60
2022,05,16,00,42,0.00
2022,05,16,00,43,0.00
2022,05,16,00,44,0.00
2022,05,16,00,45,0.00
2022,05,16,00,46,0.00
2022,05,16,00,47,0.00
2022,05,16,00,48,0.00
2022,05,16,00,49,0.00
2022,05,16,00,50,0.00
2022,05,16,00,51,0.00
2022,05,16,00,52,0.00
2022,05,16,00,53,0.00
2022,05,16,00,54,0.00
2022,05,16,00,55,0.00
2022,05,16,00,56,0.00
2022,05,16,00,57,0.00
2022,05,16,00,58,0.00
2022,05,16,00,59,0.00
2022,05,16,01,00,0.00
2022,05,16,01,01,0.00
2022,05,16,01,02,0.00
2022,05,16,01,03,0.00
2022,05,16,01,04,0.00
2022,05,16,01,05,0.00
2022,05,16,01,06,0.00
2022,05,16,01,07,0.00
2022,05,16,01,08,0.00
2022,05,16,01,09,0.00
2022,05,16,01,10,0.00
2022,05,16,01,11,0.00
2022,05,16,01,12,0.00
2022,05,16,01,13,0.00
2022,05,16,01,14,0.00
2022,05,16,01,15,0.00
2022,05,16,01,16,2.50
2022,05,16,01,17,2.20
2022,05,16,01,18,1.60
2022,05,16,01,19,0.30
2022,05,16,01,20,2.10
2022,05,16,01,21,4.80
2022,05,16,01,22,2.70
2022,05,16,01,23,1.00
2022,05,16,01,24,1.50
2022,05,16,01,25,1.90
2022,05,16,01,26,3.00
2022,05,16,01,27,3.70
2022,05,16,01,28,3.20
2022,05,16,01,29,2.30
2022,05,16,01,30,2.50
2022,05,16,01,31,1.50
2022,05,16,01,32,1.90
2022,05,16,01,33,3.90
2022,05,16,01,34,2.50
2022,05,16,01,35,2.30
2022,05,16,01,36,2.30
2022,05,16,01,37,2.70
2022,05,16,01,38,1.10
2022,05,16,01,39,0.60
2022,05,16,01,40,1.10
2022,05,16,01,41,1.70
2022,05,16,01,42,1.20
2022,05,16,01,43,0.90
2022,05,16,01,44,0.40
2022,05,16,01,45,0.70
2022,05,16,01,46,1.80
2022,05,16,01,47,0.10
2022,05,16,01,48,0.00
2022,05,16,01,49,0.00
2022,05,16,01,50,0.00
2022,05,16,01,51,0.40
2022,05,16,01,52,0.50
2022,05,16,01,53,0.20
2022,05,16,01,54,0.00
2022,05,16,01,55,0.20
2022,05,16,01,56,0.10
2022,05,16,01,57,0.00
2022,05,16,01,58,0.40
2022,05,16,01,59,1.30
2022,05,16,02,00,0.60
2022,05,16,02,01,4.80
2022,05,16,02,02,5.50
2022,05,16,02,03,1.80
2022,05,16,02,04,2.20
2022,05,16,02,05,6.60
2022,05,16,02,06,3.00
2022,05,16,02,07,4.20
2022,05,16,02,08,7.20
2022,05,16,02,09,3.50
2022,05,16,02,10,4.30
2022,05,16,02,11,4.10
2022,05,16,02,12,4.30
2022,05,16,02,13,3.40
2022,05,16,02,14,3.10
2022,05,16,02,15,3.40
2022,05,16,02,16,4.10
2022,05,16,02,17,2.50
2022,05,16,02,18,1.90
2022,05,16,02,19,1.50
2022,05,16,02,20,2.90
2022,05,16,02,21,2.30
2022,05,16,02,22,1.00
2022,05,16,02,23,0.20
2022,05,16,02,24,0.00
2022,05,16,02,25,0.80
2022,05,16,02,26,1.90
2022,05,16,02,27,1.10
2022,05,16,02,28,0.20
2022,05,16,02,29,0.00
2022,05,16,02,30,0.00
2022,05,16,02,31,0.20
2022,05,16,02,32,0.70
2022,05,16,02,33,0.90
2022,05,16,02,34,2.00
2022,05,16,02,35,2.10
2022,05,16,02,36,2.20
2022,05,16,02,37,0.10
2022,05,16,02,38,0.60
2022,05,16,02,39,1.90
2022,05,16,02,40,2.10
2022,05,16,02,41,1.30
2022,05,16,02,42,0.20
2022,05,16,02,43,0.00
2022,05,16,02,44,0.20
2022,05,16,02,45,1.30
2022,05,16,02,46,0.00
2022,05,16,02,47,0.00
2022,05,16,02,48,0.00
2022,05,16,02,49,0.00
2022,05,16,02,50,4.30
2022,05,16,02,51,2.70
2022,05,16,02,52,2.70
2022,05,16,02,53,1.30
2022,05,16,02,54,4.20
2022,05,16,02,55,3.70
2022,05,16,02,56,6.70
2022,05,16,02,57,2.30
2022,05,16,02,58,5.90
2022,05,16,02,59,3.10
2022,05,16,03,00,4.30
2022,05,16,03,01,1.00
2022,05,16,03,02,4.90
2022,05,16,03,03,3.80
2022,05,16,03,04,5.50
2022,05,16,03,05,6.70
2022,05,16,03,06,4.10
2022,05,16,03,07,10.30
2022,05,16,03,08,2.20
2022,05,16,03,09,9.10
2022,05,16,03,10,5.50
2022,05,16,03,11,5.20
2022,05,16,03,12,7.10
2022,05,16,03,13,5.30
2022,05,16,03,14,9.00
2022,05,16,03,15,7.90
2022,05,16,03,16,8.80
2022,05,16,03,17,7.40
2022,05,16,03,18,5.10
2022,05,16,03,19,5.40
2022,05,16,03,20,3.40
2022,05,16,03,21,5.40
2022,05,16,03,22,7.20
2022,05,16,03,23,7.70
2022,05,16,03,24,7.90
2022,05,16,03,25,6.20
2022,05,16,03,26,7.00
2022,05,16,03,27,7.60
2022,05,16,03,28,4.90
2022,05,16,03,29,2.90
2022,05,16,03,30,3.40
2022,05,16,03,31,4.70
2022,05,16,03,32,4.30
2022,05,16,03,33,3.70
2022,05,16,03,34,4.50
2022,05,16,03,35,6.70
2022,05,16,03,36,6.60
2022,05,16,03,37,3.70
2022,05,16,03,38,2.70
2022,05,16,03,39,2.90
2022,05,16,03,40,3.10
2022,05,16,03,41,2.30
2022,05,16,03,42,2.40
2022,05,16,03,43,0.20
2022,05,16,03,44,0.20
2022,05,16,03,45,2.30
2022,05,16,03,46,3.90
2022,05,16,03,47,4.50
2022,05,16,03,48,2.70
2022,05,16,03,49,3.40
2022,05,16,03,50,3.00
2022,05,16,03,51,3.30
2022,05,16,03,52,3.50
2022,05,16,03,53,4.20
2022,05,16,03,54,4.30
2022,05,16,03,55,0.90
2022,05,16,03,56,0.00
2022,05,16,03,57,0.00
2022,05,16,03,58,0.00
2022,05,16,03,59,0.60
2022,05,16,04,00,1.50
2022,05,16,04,01,0.00
2022,05,16,04,02,0.00
2022,05,16,04,03,0.90
2022,05,16,04,04,1.80
2022,05,16,04,05,0.50
2022,05,16,04,06,1.10
2022,05,16,04,07,1.50
2022,05,16,04,08,0.60
2022,05,16,04,09,0.00
2022,05,16,04,10,0.00
2022,05,16,04,11,0.00
2022,05,16,04,12,0.00
2022,05,16,04,13,0.00
2022,05,16,04,14,0.00
2022,05,16,04,15,0.00
2022,05,16,04,16,0.00
2022,05,16,04,17,0.00
2022,05,16,04,18,0.00
2022,05,16,04,19,0.00
2022,05,16,04,20,0.00
2022,05,16,04,21,0.00
2022,05,16,04,22,2.70
2022,05,16,04,23,4.20
2022,05,16,04,24,2.60
2022,05,16,04,25,0.50
2022,05,16,04,26,1.00
2022,05,16,04,27,0.20
2022,05,16,04,28,0.50
2022,05,16,04,29,1.80
2022,05,16,04,30,2.90
2022,05,16,04,31,2.30
2022,05,16,04,32,2.10
2022,05,16,04,33,1.20
2022,05,16,04,34,0.00
2022,05,16,04,35,0.10
2022,05,16,04,36,1.80
2022,05,16,04,37,3.00
2022,05,16,04,38,2.70
2022,05,16,04,39,3.40
2022,05,16,04,40,2.20
2022,05,16,04,41,2.00
2022,05,16,04,42,1.70
2022,05,16,04,43,1.40
2022,05,16,04,44,1.40
2022,05,16,04,45,1.40
2022,05,16,04,46,2.70
2022,05,16,04,47,3.50
2022,05,16,04,48,2.70
2022,05,16,04,49,2.30
2022,05,16,04,50,3.10
2022,05,16,04,51,3.20
2022,05,16,04,52,3.70
2022,05,16,04,53,1.80
2022,05,16,04,54,1.90
2022,05,16,04,55,2.00
2022,05,16,04,56,2.90
2022,05,16,04,57,2.30
2022,05,16,04,58,2.30
2022,05,16,04,59,0.90
2022,05,16,05,00,0.90
2022,05,16,05,01,0.10
2022,05,16,05,02,0.00
2022,05,16,05,03,0.00
2022,05,16,05,04,0.20
2022,05,16,05,05,0.60
2022,05,16,05,06,2.30
2022,05,16,05,07,2.70
2022,05,16,05,08,2.50
2022,05,16,05,09,2.50
2022,05,16,05,10,3.70
2022,05,16,05,11,4.10
2022,05,16,05,12,3.70
2022,05,16,05,13,3.40
2022,05,16,05,14,3.10
2022,05,16,05,15,1.90
2022,05,16,05,16,1.20
2022,05,16,05,17,0.60
2022,05,16,05,18,0.10
2022,05,16,05,19,0.10
2022,05,16,05,20,0.00
2022,05,16,05,21,0.10
2022,05,16,05,22,0.00
2022,05,16,05,23,0.20
2022,05,16,05,24,0.00
2022,05,16,05,25,0.00
2022,05,16,05,26,0.00
2022,05,16,05,27,0.00
2022,05,16,05,28,0.00
2022,05,16,05,29,0.00
2022,05,16,05,30,0.00
2022,05,16,05,31,0.00
2022,05,16,05,32,0.00
2022,05,16,05,33,0.00
2022,05,16,05,34,0.00
2022,05,16,05,35,0.00
2022,05,16,05,36,0.00
2022,05,16,05,37,1.00
2022,05,16,05,38,3.40
2022,05,16,05,39,2.50
2022,05,16,05,40,2.70
2022,05,16,05,41,2.90
2022,05,16,05,42,3.20
2022,05,16,05,43,3.60
2022,05,16,05,44,1.40
2022,05,16,05,45,0.60
2022,05,16,05,46,1.80
2022,05,16,05,47,3.10
2022,05,16,05,48,2.00
2022,05,16,05,49,1.00
2022,05,16,05,50,0.60
2022,05,16,05,51,2.30
2022,05,16,05,52,3.40
2022,05,16,05,53,3.30
2022,05,16,05,54,3.50
2022,05,16,05,55,4.60
2022,05,16,05,56,5.40
2022,05,16,05,57,7.20
2022,05,16,05,58,6.20
2022,05,16,05,59,4.30
2022,05,16,06,00,5.20
2022,05,16,06,01,7.70
2022,05,16,06,02,7.00
2022,05,16,06,03,9.70
2022,05,16,06,04,12.90
2022,05,16,06,05,15.10
2022,05,16,06,06,12.40
2022,05,16,06,07,5.70
2022,05,16,06,08,10.20
2022,05,16,06,09,10.10
2022,05,16,06,10,10.10
2022,05,16,06,11,7.60
2022,05,16,06,12,3.70
2022,05,16,06,13,7.20
2022,05,16,06,14,8.60
2022,05,16,06,15,11.90
2022,05,16,06,16,8.10
2022,05,16,06,17,7.20
2022,05,16,06,18,9.20
2022,05,16,06,19,9.00
2022,05,16,06,20,5.50
2022,05,16,06,21,6.10
2022,05,16,06,22,4.80
2022,05,16,06,23,3.60
2022,05,16,06,24,4.20
2022,05,16,06,25,6.90
2022,05,16,06,26,7.00
2022,05,16,06,27,6.40
2022,05,16,06,28,6.30
2022,05,16,06,29,7.00
2022,05,16,06,30,6.90
2022,05,16,06,31,6.20
2022,05,16,06,32,5.50
2022,05,16,06,33,7.20
2022,05,16,06,34,4.70
2022,05,16,06,35,6.80
2022,05,16,06,36,7.00
2022,05,16,06,37,7.80
2022,05,16,06,38,6.90
2022,05,16,06,39,7.40
2022,05,16,06,40,8.90
2022,05,16,06,41,7.80
2022,05,16,06,42,5.10
2022,05,16,06,43,4.90
2022,05,16,06,44,6.40
2022,05,16,06,45,8.10
2022,05,16,06,46,6.70
2022,05,16,06,47,5.10
2022,05,16,06,48,6.00
2022,05,16,06,49,6.10
2022,05,16,06,50,4.70
2022,05,16,06,51,5.60
2022,05,16,06,52,5.20
2022,05,16,06,53,2.90
2022,05,16,06,54,3.30
2022,05,16,06,55,5.40
2022,05,16,06,56,3.50
2022,05,16,06,57,2.90
2022,05,16,06,58,2.70
2022,05,16,06,59,2.80
2022,05,16,07,00,5.30
2022,05,16,07,01,4.70
2022,05,16,07,02,4.60
2022,05,16,07,03,3.10
2022,05,16,07,04,6.20
2022,05,16,07,05,3.90
2022,05,16,07,06,7.50
2022,05,16,07,07,4.10
2022,05,16,07,08,4.90
2022,05,16,07,09,4.90
2022,05,16,07,10,5.70
2022,05,16,07,11,5.60
2022,05,16,07,12,4.90
2022,05,16,07,13,5.50
2022,05,16,07,14,5.20
2022,05,16,07,15,3.40
2022,05,16,07,16,4.10
2022,05,16,07,17,3.40
2022,05,16,07,18,3.90
2022,05,16,07,19,3.10
2022,05,16,07,20,5.20
2022,05,16,07,21,4.60
2022,05,16,07,22,6.20
2022,05,16,07,23,4.30
2022,05,16,07,24,5.10
2022,05,16,07,25,5.40
2022,05,16,07,26,5.20
2022,05,16,07,27,8.40
2022,05,16,07,28,6.80
2022,05,16,07,29,6.20
2022,05,16,07,30,6.00
2022,05,16,07,31,4.80
2022,05,16,07,32,5.40
2022,05,16,07,33,7.50
2022,05,16,07,34,6.40
2022,05,16,07,35,4.50
2022,05,16,07,36,6.10
2022,05,16,07,37,1.60
2022,05,16,07,38,3.90
2022,05,16,07,39,4.10
2022,05,16,07,40,7.70
2022,05,16,07,41,5.20
2022,05,16,07,42,1.50
2022,05,16,07,43,2.70
2022,05,16,07,44,3.50
2022,05,16,07,45,1.50
2022,05,16,07,46,2.60
2022,05,16,07,47,3.00
2022,05,16,07,48,1.50
2022,05,16,07,49,1.40
2022,05,16,07,50,2.20
2022,05,16,07,51,2.90
2022,05,16,07,52,3.60
2022,05,16,07,53,2.50
2022,05,16,07,54,1.90
2022,05,16,07,55,1.00
2022,05,16,07,56,1.80
2022,05,16,07,57,0.20
2022,05,16,07,58,1.50
2022,05,16,07,59,1.20
2022,05,16,08,00,1.50
2022,05,16,08,01,0.20
2022,05,16,08,02,0.80
2022,05,16,08,03,0.00
2022,05,16,08,04,0.00
2022,05,16,08,05,0.70
2022,05,16,08,06,1.20
2022,05,16,08,07,1.70
2022,05,16,08,08,2.60
2022,05,16,08,09,2.40
2022,05,16,08,10,2.40
2022,05,16,08,11,0.80
2022,05,16,08,12,0.80
2022,05,16,08,13,0.40
2022,05,16,08,14,1.80
2022,05,16,08,15,1.70
2022,05,16,08,16,3.70
2022,05,16,08,17,10.40
2022,05,16,08,18,8.20
2022,05,16,08,19,3.90
2022,05,16,08,20,4.30
2022,05,16,08,21,3.00
2022,05,16,08,22,2.30
2022,05,16,08,23,4.00
2022,05,16,08,24,1.50
2022,05,16,08,25,5.80
2022,05,16,08,26,5.40
2022,05,16,08,27,3.10
2022,05,16,08,28,6.50
2022,05,16,08,29,5.30
2022,05,16,08,30,3.50
2022,05,16,08,31,2.30
2022,05,16,08,32,4.70
2022,05,16,08,33,6.80
2022,05,16,08,34,3.20
2022,05,16,08,35,3.30
2022,05,16,08,36,4.10
2022,05,16,08,37,3.10
2022,05,16,08,38,7.60
2022,05,16,08,39,7.80
2022,05,16,08,40,5.30
2022,05,16,08,41,4.70
2022,05,16,08,42,6.40
2022,05,16,08,43,8.00
2022,05,16,08,44,12.50
2022,05,16,08,45,13.30
2022,05,16,08,46,8.70
2022,05,16,08,47,16.90
2022,05,16,08,48,16.30
2022,05,16,08,49,13.30
2022,05,16,08,50,13.90
2022,05,16,08,51,15.00
2022,05,16,08,52,10.90
2022,05,16,08,53,14.60
2022,05,16,08,54,16.00
2022,05,16,08,55,16.10
2022,05,16,08,56,14.60
2022,05,16,08,57,15.20
2022,05,16,08,58,16.40
2022,05,16,08,59,19.20
2022,05,16,09,00,15.30
2022,05,16,09,01,15.10
2022,05,16,09,02,16.20
2022,05,16,09,03,12.60
2022,05,16,09,04,14.10
2022,05,16,09,05,13.60
2022,05,16,09,06,7.40
2022,05,16,09,07,10.30
2022,05,16,09,08,8.00
2022,05,16,09,09,9.30
2022,05,16,09,10,8.30
2022,05,16,09,11,5.80
2022,05,16,09,12,6.30
2022,05,16,09,13,4.80
2022,05,16,09,14,6.20
2022,05,16,09,15,7.60
2022,05,16,09,16,7.20
2022,05,16,09,17,6.00
2022,05,16,09,18,4.80
2022,05,16,09,19,10.60
2022,05,16,09,20,13.00
2022,05,16,09,21,9.80
2022,05,16,09,22,12.90
2022,05,16,09,23,10.70
2022,05,16,09,24,6.20
2022,05,16,09,25,10.90
2022,05,16,09,26,15.90
2022,05,16,09,27,15.40
2022,05,16,09,28,12.00
2022,05,16,09,29,15.40
2022,05,16,09,30,11.60
2022,05,16,09,31,10.10
2022,05,16,09,32,13.30
2022,05,16,09,33,14.20
2022,05,16,09,34,14.20
2022,05,16,09,35,15.20
2022,05,16,09,36,14.70
2022,05,16,09,37,11.70
2022,05,16,09,38,13.10
2022,05,16,09,39,16.30
2022,05,16,09,40,19.40
2022,05,16,09,41,16.40
2022,05,16,09,42,15.70
2022,05,16,09,43,16.70
2022,05,16,09,44,14.60
2022,05,16,09,45,14.20
2022,05,16,09,46,16.40
2022,05,16,09,47,12.10
2022,05,16,09,48,14.80
2022,05,16,09,49,9.30
2022,05,16,09,50,14.90
2022,05,16,09,51,17.00
2022,05,16,09,52,22.00
2022,05,16,09,53,21.70
2022,05,16,09,54,22.20
2022,05,16,09,55,20.80
2022,05,16,09,56,15.50
2022,05,16,09,57,13.40
2022,05,16,09,58,18.00
2022,05,16,09,59,17.70
2022,05,16,10,00,23.70
2022,05,16,10,01,26.60
2022,05,16,10,02,19.90
2022,05,16,10,03,21.60
2022,05,16,10,04,20.30
2022,05,16,10,05,22.20
2022,05,16,10,06,23.10
2022,05,16,10,07,31.30
2022,05,16,10,08,21.30
2022,05,16,10,09,20.00
2022,05,16,10,10,19.70
2022,05,16,10,11,21.00
2022,05,16,10,12,20.20
2022,05,16,10,13,19.20
2022,05,16,10,14,23.70
2022,05,16,10,15,24.30
2022,05,16,10,16,26.50
2022,05,16,10,17,28.00
2022,05,16,10,18,20.30
2022,05,16,10,19,26.00
2022,05,16,10,20,26.90
2022,05,16,10,21,34.20
2022,05,16,10,22,21.50
2022,05,16,10,23,13.70
2022,05,16,10,24,18.60
2022,05,16,10,25,16.10
2022,05,16,10,26,20.00
2022,05,16,10,27,22.10
2022,05,16,10,28,15.00
2022,05,16,10,29,10.10
2022,05,16,10,30,22.50
2022,05,16,10,31,19.80
2022,05,16,10,32,25.80
2022,05,16,10,33,17.80
2022,05,16,10,34,18.30
2022,05,16,10,35,18.80
2022,05,16,10,36,22.50
2022,05,16,10,37,25.80
2022,05,16,10,38,29.40
2022,05,16,10,39,28.10
2022,05,16,10,40,20.90
2022,05,16,10,41,23.90
2022,05,16,10,42,22.90
2022,05,16,10,43,27.50
2022,05,16,10,44,23.70
2022,05,16,10,45,28.80
2022,05,16,10,46,24.80
2022,05,16,10,47,21.80
2022,05,16,10,48,23.10
2022,05,16,10,49,23.20
2022,05,16,10,50,24.10
2022,05,16,10,51,21.60
2022,05,16,10,52,17.00
2022,05,16,10,53,20.40
2022,05,16,10,54,18.40
2022,05,16,10,55,24.90
2022,05,16,10,56,12.40
2022,05,16,10,57,23.30
2022,05,16,10,58,20.60
2022,05,16,10,59,16.00
2022,05,16,11,00,13.70
2022,05,16,11,01,23.00
2022,05,16,11,02,10.10
2022,05,16,11,03,19.20
2022,05,16,11,04,11.00
2022,05,16,11,05,15.40
2022,05,16,11,06,19.20
2022,05,16,11,07,17.90
2022,05,16,11,08,17.00
2022,05,16,11,09,25.20
2022,05,16,11,10,18.70
2022,05,16,11,11,27.20
2022,05,16,11,12,27.40
2022,05,16,11,13,27.80
2022,05,16,11,14,20.00
2022,05,16,11,15,13.70
2022,05,16,11,16,11.60
2022,05,16,11,17,9.70
2022,05,16,11,18,20.70
2022,05,16,11,19,14.10
2022,05,16,11,20,17.70
2022,05,16,11,21,19.70
2022,05,16,11,22,15.60
2022,05,16,11,23,18.30
2022,05,16,11,24,11.80
2022,05,16,11,25,21.50
2022,05,16,11,26,10.20
2022,05,16,11,27,10.90
2022,05,16,11,28,17.10
2022,05,16,11,29,8.80
2022,05,16,11,30,6.10
2022,05,16,11,31,12.90
2022,05,16,11,32,17.90
2022,05,16,11,33,15.20
2022,05,16,11,34,23.80
2022,05,16,11,35,9.30
2022,05,16,11,36,11.60
2022,05,16,11,37,13.30
2022,05,16,11,38,15.00
2022,05,16,11,39,15.00
2022,05,16,11,40,8.40
2022,05,16,11,41,6.80
2022,05,16,11,42,14.10
2022,05,16,11,43,8.10
2022,05,16,11,44,15.60
2022,05,16,11,45,5.10
2022,05,16,11,46,6.00
2022,05,16,11,47,3.50
2022,05,16,11,48,8.10
2022,05,16,11,49,17.90
2022,05,16,11,50,14.50
2022,05,16,11,51,10.20
2022,05,16,11,52,12.10
2022,05,16,11,53,9.60
2022,05,16,11,54,12.60
2022,05,16,11,55,12.20
2022,05,16,11,56,14.30
2022,05,16,11,57,9.80
2022,05,16,11,58,9.40
2022,05,16,11,59,21.50
2022,05,16,12,00,17.80
2022,05,16,12,01,11.40
2022,05,16,12,02,13.80
2022,05,16,12,03,13.90
2022,05,16,12,04,11.30
2022,05,16,12,05,10.50
2022,05,16,12,06,14.20
2022,05,16,12,07,8.80
2022,05,16,12,08,10.00
2022,05,16,12,09,9.60
2022,05,16,12,10,7.70
2022,05,16,12,11,5.70
2022,05,16,12,12,5.00
2022,05,16,12,13,12.50
2022,05,16,12,14,6.00
2022,05,16,12,15,8.50
2022,05,16,12,16,12.40
2022,05,16,12,17,13.80
2022,05,16,12,18,5.60
2022,05,16,12,19,3.70
2022,05,16,12,20,4.30
2022,05,16,12,21,8.30
2022,05,16,12,22,7.20
2022,05,16,12,23,5.70
2022,05,16,12,24,7.20
2022,05,16,12,25,7.00
2022,05,16,12,26,5.50
2022,05,16,12,27,1.80
2022,05,16,12,28,6.80
2022,05,16,12,29,4.60
2022,05,16,12,30,6.00
2022,05,16,12,31,5.10
2022,05,16,12,32,4.70
2022,05,16,12,33,3.30
2022,05,16,12,34,7.50
2022,05,16,12,35,9.10
2022,05,16,12,36,6.80
2022,05,16,12,37,8.50
2022,05,16,12,38,8.30
2022,05,16,12,39,7.20
2022,05,16,12,40,9.30
2022,05,16,12,41,10.00
2022,05,16,12,42,5.40
2022,05,16,12,43,3.70
2022,05,16,12,44,7.40
2022,05,16,12,45,8.10
2022,05,16,12,46,6.00
2022,05,16,12,47,5.10
2022,05,16,12,48,2.70
2022,05,16,12,49,6.00
2022,05,16,12,50,5.90
2022,05,16,12,51,5.60
2022,05,16,12,52,3.30
2022,05,16,12,53,2.70
2022,05,16,12,54,8.70
2022,05,16,12,55,5.90
2022,05,16,12,56,4.90
2022,05,16,12,57,4.10
2022,05,16,12,58,4.70
2022,05,16,12,59,4.50
2022,05,16,13,00,3.30
2022,05,16,13,01,2.70
2022,05,16,13,02,4.80
2022,05,16,13,03,4.40
2022,05,16,13,04,2.20
2022,05,16,13,05,7.80
2022,05,16,13,06,7.20
2022,05,16,13,07,8.90
2022,05,16,13,08,8.50
2022,05,16,13,09,3.90
2022,05,16,13,10,12.80
2022,05,16,13,11,11.90
2022,05,16,13,12,12.80
2022,05,16,13,13,13.50
2022,05,16,13,14,11.80
2022,05,16,13,15,7.30
2022,05,16,13,16,7.60
2022,05,16,13,17,9.20
2022,05,16,13,18,13.40
2022,05,16,13,19,11.70
2022,05,16,13,20,7.70
2022,05,16,13,21,6.50
2022,05,16,13,22,5.20
2022,05,16,13,23,9.70
2022,05,16,13,24,13.00
2022,05,16,13,25,13.00
2022,05,16,13,26,6.70
2022,05,16,13,27,4.70
2022,05,16,13,28,6.80
2022,05,16,13,29,7.60
2022,05,16,13,30,4.80
2022,05,16,13,31,5.50
2022,05,16,13,32,5.30
2022,05,16,13,33,8.70
2022,05,16,13,34,5.20
2022,05,16,13,35,6.90
2022,05,16,13,36,8.50
2022,05,16,13,37,5.80
2022,05,16,13,38,3.60
2022,05,16,13,39,6.30
2022,05,16,13,40,6.80
2022,05,16,13,41,5.70
2022,05,16,13,42,6.00
2022,05,16,13,43,4.70
2022,05,16,13,44,2.40
2022,05,16,13,45,2.40
2022,05,16,13,46,2.90
2022,05,16,13,47,5.10
2022,05,16,13,48,3.50
2022,05,16,13,49,5.10
2022,05,16,13,50,5.70
2022,05,16,13,51,6.70
2022,05,16,13,52,6.00
2022,05,16,13,53,8.10
2022,05,16,13,54,7.90
2022,05,16,13,55,8.80
2022,05,16,13,56,7.20
2022,05,16,13,57,6.50
2022,05,16,13,58,7.20
2022,05,16,13,59,7.20
2022,05,16,14,00,6.50
2022,05,16,14,01,5.20
2022,05,16,14,02,11.90
2022,05,16,14,03,8.80
2022,05,16,14,04,10.10
2022,05,16,14,05,9.80
2022,05,16,14,06,7.90
2022,05,16,14,07,9.30
2022,05,16,14,08,5.80
2022,05,16,14,09,4.40
2022,05,16,14,10,3.80
2022,05,16,14,11,5.30
2022,05,16,14,12,4.30
2022,05,16,14,13,3.30
2022,05,16,14,14,3.10
2022,05,16,14,15,1.40
2022,05,16,14,16,3.20
2022,05,16,14,17,6.30
2022,05,16,14,18,3.90
2022,05,16,14,19,4.50
2022,05,16,14,20,4.90
2022,05,16,14,21,2.70
2022,05,16,14,22,5.70
2022,05,16,14,23,6.00
2022,05,16,14,24,7.10
2022,05,16,14,25,8.50
2022,05,16,14,26,7.30
2022,05,16,14,27,4.90
2022,05,16,14,28,4.90
2022,05,16,14,29,4.10
2022,05,16,14,30,2.80
2022,05,16,14,31,5.20
2022,05,16,14,32,4.80
2022,05,16,14,33,2.50
2022,05,16,14,34,4.50
2022,05,16,14,35,3.60
2022,05,16,14,36,2.30
2022,05,16,14,37,2.40
2022,05,16,14,38,6.40
2022,05,16,14,39,8.00
2022,05,16,14,40,7.30
2022,05,16,14,41,9.20
2022,05,16,14,42,5.10
2022,05,16,14,43,5.40
2022,05,16,14,44,4.30
2022,05,16,14,45,7.30
2022,05,16,14,46,9.70
2022,05,16,14,47,8.60
2022,05,16,14,48,7.20
2022,05,16,14,49,5.40
2022,05,16,14,50,4.20
2022,05,16,14,51,3.50
2022,05,16,14,52,4.10
2022,05,16,14,53,6.10
2022,05,16,14,54,6.90
2022,05,16,14,55,9.40
2022,05,16,14,56,9.30
2022,05,16,14,57,4.30
2022,05,16,14,58,4.00
2022,05,16,14,59,5.20
2022,05,16,15,00,5.50
2022,05,16,15,01,7.20
2022,05,16,15,02,5.60
2022,05,16,15,03,4.90
2022,05,16,15,04,4.00
2022,05,16,15,05,4.50
2022,05,16,15,06,4.30
2022,05,16,15,07,3.50
2022,05,16,15,08,2.30
2022,05,16,15,09,3.20
2022,05,16,15,10,3.30
2022,05,16,15,11,2.60
2022,05,16,15,12,3.00
2022,05,16,15,13,6.00
2022,05,16,15,14,5.10
2022,05,16,15,15,4.20
2022,05,16,15,16,6.20
2022,05,16,15,17,2.30
2022,05,16,15,18,3.60
2022,05,16,15,19,4.60
2022,05,16,15,20,5.20
2022,05,16,15,21,3.30
2022,05,16,15,22,5.20
2022,05,16,15,23,5.70
2022,05,16,15,24,3.10
2022,05,16,15,25,1.40
2022,05,16,15,26,3.40
2022,05,16,15,27,5.10
2022,05,16,15,28,4.30
2022,05,16,15,29,3.40
2022,05,16,15,30,1.90
2022,05,16,15,31,2.70
2022,05,16,15,32,5.60
2022,05,16,15,33,5.20
2022,05,16,15,34,3.40
2022,05,16,15,35,3.90
2022,05,16,15,36,3.00
2022,05,16,15,37,4.30
2022,05,16,15,38,9.40
2022,05,16,15,39,6.00
2022,05,16,15,40,3.70
2022,05,16,15,41,4.50
2022,05,16,15,42,3.50
2022,05,16,15,43,5.20
2022,05,16,15,44,10.70
2022,05,16,15,45,9.50
2022,05,16,15,46,7.70
2022,05,16,15,47,3.80
2022,05,16,15,48,7.60
2022,05,16,15,49,8.90
2022,05,16,15,50,7.00
2022,05,16,15,51,5.60
2022,05,16,15,52,5.20
2022,05,16,15,53,6.00
2022,05,16,15,54,3.60
2022,05,16,15,55,2.20
2022,05,16,15,56,1.30
2022,05,16,15,57,3.00
2022,05,16,15,58,3.00
2022,05,16,15,59,2.20
2022,05,16,16,00,1.10
2022,05,16,16,01,1.20
2022,05,16,16,02,1.30
2022,05,16,16,03,2.70
2022,05,16,16,04,2.90
2022,05,16,16,05,1.10
2022,05,16,16,06,1.50
2022,05,16,16,07,0.70
2022,05,16,16,08,3.50
2022,05,16,16,09,2.40
2022,05,16,16,10,2.30
2022,05,16,16,11,1.30
2022,05,16,16,12,3.50
2022,05,16,16,13,2.00
2022,05,16,16,14,4.70
2022,05,16,16,15,2.50
2022,05,16,16,16,1.50
2022,05,16,16,17,0.70
2022,05,16,16,18,1.30
2022,05,16,16,19,1.80
2022,05,16,16,20,2.10
2022,05,16,16,21,3.50
2022,05,16,16,22,1.10
2022,05,16,16,23,0.20
2022,05,16,16,24,0.20
2022,05,16,16,25,0.40
2022,05,16,16,26,3.90
2022,05,16,16,27,0.40
2022,05,16,16,28,1.30
2022,05,16,16,29,2.20
2022,05,16,16,30,3.00
2022,05,16,16,31,2.00
2022,05,16,16,32,1.70
2022,05,16,16,33,0.60
2022,05,16,16,34,1.90
2022,05,16,16,35,0.50
2022,05,16,16,36,1.90
2022,05,16,16,37,1.50
2022,05,16,16,38,1.40
2022,05,16,16,39,1.50
2022,05,16,16,40,1.10
2022,05,16,16,41,1.90
2022,05,16,16,42,0.60
2022,05,16,16,43,0.90
2022,05,16,16,44,0.70
2022,05,16,16,45,1.20
2022,05,16,16,46,1.80
2022,05,16,16,47,1.90
2022,05,16,16,48,0.50
2022,05,16,16,49,0.70
2022,05,16,16,50,1.20
2022,05,16,16,51,1.30
2022,05,16,16,52,1.00
2022,05,16,16,53,0.90
2022,05,16,16,54,1.00
2022,05,16,16,55,0.60
2022,05,16,16,56,0.20
2022,05,16,16,57,1.90
2022,05,16,16,58,0.10
2022,05,16,16,59,0.10
2022,05,16,17,00,1.10
2022,05,16,17,01,0.20
2022,05,16,17,02,0.50
2022,05,16,17,03,2.90
2022,05,16,17,04,3.00
2022,05,16,17,05,2.60
2022,05,16,17,06,1.10
2022,05,16,17,07,1.00
2022,05,16,17,08,0.40
2022,05,16,17,09,3.40
2022,05,16,17,10,3.10
2022,05,16,17,11,3.00
2022,05,16,17,12,1.00
2022,05,16,17,13,0.40
2022,05,16,17,14,0.90
2022,05,16,17,15,0.70
2022,05,16,17,16,0.00
2022,05,16,17,17,1.60
2022,05,16,17,18,4.00
2022,05,16,17,19,1.80
2022,05,16,17,20,3.90
2022,05,16,17,21,3.70
2022,05,16,17,22,4.30
2022,05,16,17,23,4.70
2022,05,16,17,24,3.30
2022,05,16,17,25,7.00
2022,05,16,17,26,10.30
2022,05,16,17,27,10.30
2022,05,16,17,28,6.80
2022,05,16,17,29,6.80
2022,05,16,17,30,7.50
2022,05,16,17,31,7.40
2022,05,16,17,32,6.00
2022,05,16,17,33,3.50
2022,05,16,17,34,3.40
2022,05,16,17,35,5.40
2022,05,16,17,36,5.00
2022,05,16,17,37,5.40
2022,05,16,17,38,3.50
2022,05,16,17,39,6.10
2022,05,16,17,40,6.20
2022,05,16,17,41,4.60
2022,05,16,17,42,5.10
2022,05,16,17,43,6.00
2022,05,16,17,44,4.10
2022,05,16,17,45,5.20
2022,05,16,17,46,9.40
2022,05,16,17,47,7.60
2022,05,16,17,48,8.30
2022,05,16,17,49,6.20
2022,05,16,17,50,6.40
2022,05,16,17,51,6.40
2022,05,16,17,52,5.80
2022,05,16,17,53,4.30
2022,05,16,17,54,2.80
2022,05,16,17,55,1.50
2022,05,16,17,56,1.40
2022,05,16,17,57,0.00